[TLELIST] Archives

 

[list_settings.list_name] Current TLEs

March 13th 2022 PST

HST 1 20580U 90037B 22071.77013839 .00002270 00000-0 12489-3 0 9992 2 20580 28.4700 89.2234 0002799 77.2774 87.1989 15.10120392551587 ISS (ZARYA) 1 25544U 98067A 22072.38741953 .00009770 00000-0 18279-3 0 9996 2 25544 51.6430 91.0345 0004192 259.3834 235.4789 15.49387472330322 CXO 1 25867U 99040B 22072.84975058 .00000976 00000-0 00000-0 0 9991 2 25867 48.0587 241.6762 8708314 230.7171 0.3812 0.37807715 11444 ____________________________________________________________________ These 2-Line ...Continue Reading

[list_settings.list_name] Current TLEs

March 12th 2022 PST

HST 1 20580U 90037B 22070.77868788 .00002090 00000-0 11415-3 0 9990 2 20580 28.4700 95.7883 0002777 67.4999 96.3398 15.10115491551439 ISS (ZARYA) 1 25544U 98067A 22071.42085045 .00060472 00000-0 10821-2 0 9993 2 25544 51.6435 95.8152 0004314 253.5673 246.4540 15.49393806330176 CXO 1 25867U 99040B 22072.84975058 .00000976 00000-0 00000-0 0 9991 2 25867 48.0587 241.6762 8708314 230.7171 0.3812 0.37807715 11444 ____________________________________________________________________ These 2-Line ...Continue Reading

[list_settings.list_name] Current TLEs

March 11th 2022 PST

HST 1 20580U 90037B 22069.78745792 .00001973 00000-0 10713-3 0 9997 2 20580 28.4699 102.3518 0002755 57.6101 106.8080 15.10110916551283 ISS (ZARYA) 1 25544U 98067A 22070.45605954 .00006025 00000-0 11480-3 0 9999 2 25544 51.6418 100.5884 0004963 239.4457 275.3012 15.49660700330025 CXO 1 25867U 99040B 22072.84892760 .00000976 00000-0 00000+0 0 9998 2 25867 48.0589 241.6762 8708306 230.7170 0.2692 0.37808093 22599 ____________________________________________________________________ These 2-Line ...Continue Reading

[list_settings.list_name] Current TLEs

March 10th 2022 PST

HST 1 20580U 90037B 22068.79384285 .00002054 00000-0 11201-3 0 9997 2 20580 28.4699 108.9310 0002726 47.5610 104.4625 15.10107754551135 ISS (ZARYA) 1 25544U 98067A 22069.35200183 .00006431 00000-0 12204-3 0 9997 2 25544 51.6425 106.0549 0004974 237.3400 234.0756 15.49647923329857 CXO 1 25867U 99040B 22070.20565423 .00000825 00000-0 00000+0 0 9992 2 25867 48.1199 241.8287 8705153 230.6339 0.4798 0.37806697 22580 ____________________________________________________________________ These 2-Line ...Continue Reading

[list_settings.list_name] Current TLEs

March 9th 2022 PST

HST 1 20580U 90037B 22067.87197750 .00001963 00000-0 10655-3 0 9994 2 20580 28.4698 115.0350 0002690 38.1922 132.2802 15.10103878550991 ISS (ZARYA) 1 25544U 98067A 22068.45309376 .00006737 00000-0 12750-3 0 9996 2 25544 51.6429 110.5068 0004928 236.1528 257.2040 15.49636584329713 CXO 1 25867U 99040B 22070.20565423 .00000825 00000-0 00000+0 0 9992 2 25867 48.1199 241.8287 8705153 230.6339 0.4798 0.37806697 22580 ____________________________________________________________________ These 2-Line ...Continue Reading

[list_settings.list_name] Current TLEs

March 8th 2022 PST

HST 1 20580U 90037B 22066.88023348 .00002092 00000-0 11430-3 0 9991 2 20580 28.4698 121.6015 0002651 28.0955 140.1990 15.10101097550844 ISS (ZARYA) 1 25544U 98067A 22067.39892429 .00007089 00000-0 13379-3 0 9993 2 25544 51.6432 115.7263 0004941 231.8405 136.7776 15.49622677329559 CXO 1 25867U 99040B 22067.56097013 .00000682 00000-0 00000+0 0 9993 2 25867 48.1876 241.9867 8701441 230.5465 0.4888 0.37807670 22573 ____________________________________________________________________ These 2-Line ...Continue Reading

[list_settings.list_name] Current TLEs

March 7th 2022 PST

HST 1 20580U 90037B 22065.61695611 .00002188 00000-0 12004-3 0 9993 2 20580 28.4696 129.9661 0002596 14.9084 112.1469 15.10097503550650 ISS (ZARYA) 1 25544U 98067A 22066.45355595 .00007282 00000-0 13728-3 0 9990 2 25544 51.6430 120.4072 0005120 226.4305 264.8606 15.49609172329401 CXO 1 25867U 99040B 22067.56097013 .00000682 00000-0 00000+0 0 9993 2 25867 48.1876 241.9867 8701441 230.5465 0.4888 0.37807670 22573 ____________________________________________________________________ These 2-Line ...Continue Reading

[list_settings.list_name] Current TLEs

March 6th 2022 PST

HST 1 20580U 90037B 22064.89776091 .00002231 00000-0 12265-3 0 9992 2 20580 28.4696 134.7280 0002568 7.2433 162.2672 15.10095331550540 ISS (ZARYA) 1 25544U 98067A 22065.46512391 .00007160 00000-0 13519-3 0 9992 2 25544 51.6438 125.3004 0005200 221.7212 151.8976 15.49593718329258 CXO 1 25867U 99040B 22067.56097013 .00000682 00000-0 00000+0 0 9993 2 25867 48.1876 241.9867 8701441 230.5465 0.4888 0.37807670 22573 ____________________________________________________________________ These 2-Line ...Continue Reading

[list_settings.list_name] Current TLEs

March 5th 2022 PST

HST 1 20580U 90037B 22063.63844891 .00001531 00000-0 80727-4 0 9998 2 20580 28.4694 143.0662 0002500 353.5306 156.3674 15.10087598550358 ISS (ZARYA) 1 25544U 98067A 22064.38175976 .00006716 00000-0 12740-3 0 9997 2 25544 51.6436 130.6630 0005366 215.2572 230.8162 15.49575703329080 CXO 1 25867U 99040B 22064.91821021 .00000621 00000-0 00000-0 0 9997 2 25867 48.2565 242.1407 8696088 230.4668 0.7498 0.37806305 11400 ____________________________________________________________________ These 2-Line ...Continue Reading

[list_settings.list_name] Current TLEs

March 4th 2022 PST

HST 1 20580U 90037B 22062.64059868 .00001716 00000-0 91808-4 0 9997 2 20580 28.4694 149.6732 0002459 342.5035 132.0117 15.10085848550201 ISS (ZARYA) 1 25544U 98067A 22063.35681434 .00007047 00000-0 13332-3 0 9990 2 25544 51.6438 135.7368 0005496 211.1152 273.5830 15.49562010328924 CXO 1 25867U 99040B 22064.91821021 .00000621 00000-0 00000-0 0 9997 2 25867 48.2565 242.1407 8696088 230.4668 0.7498 0.37806305 11400 ____________________________________________________________________ These 2-Line ...Continue Reading
  • This mailing list is a public mailing list - anyone may join or leave, at any time.
  • This mailing list is announce-only.

International Space Station (ISS) / Hubble Space Telescope (HST) / Chandra X-Ray Observatory Orbital Data via EMAIL

Privacy Policy:

Private list